User: anonymous   Login
Location: Bonac
(42.8765°N, 0.9753°E)
Time: 16:12:33
(UTC+00:00)
Language:

CZ-4 R/B - Orbit

View from above orbital plane
View from above orbital plane
View from above satellite
View from above satellite

Ground track
Ground track

The orbit is defined by the following mean orbital elements,

1 28414U          26076.29383175 +.00000000 +00000-0 +14768-3 0 00000
2 28414  97.6134  95.3518 0006786  92.8219 267.3784 15.05684348    01
Epoch (UTC): 17 March 2026 07:03:07
Eccentricity: 0.0006786
inclination: 97.6134°
perigee height: 545 km
apogee height: 554 km
right ascension of ascending node: 95.3518°
argument of perigee: 92.8219°
revolutions per day: 15.05684348
mean anomaly at epoch: 267.3784°

The dashed part of the orbit path shows where the satellite is in the earth's shadow,  

DLR